Volver al catálogo

STARLINK-2235

ActivoComunicacionesVLEO
NORAD 48581·PAYLOAD·🇺🇸 United States

Lanzado May 15, 2021 desde Cape Canaveral Space Force Station

Loading…

Próximos Pases (próximas 24 horas)

TLE

ActualizadoSource: CelesTrak SupGP

Época: Sep 15, 2026, 00:54 UTC

1 48581C 21041AE  26258.03798611  .00053414  00000+0  17172-2 0  2586
2 48581  53.1572 302.6648 0001320  94.9216 286.7939 15.31683692    16

Sigue STARLINK-2235 en tiempo real con AllMySat

Download on the App Store